This is the latest recevied weather packets stored in our database for station/object K7LER. If no packets are shown the sender has not sent any weather packets the latest 10 day(s).
| Time | Temp. | Humidity | Pressure | Rain* | Wind** | Luminosity | Snow |
|---|---|---|---|---|---|---|---|
| 1777672235 | 19.44° C | 53% | 1015.2 hPa | 0 mm | - | 696 W/m² | - |
| 1777671941 | 19.44° C | 53% | 1015.1 hPa | 0 mm | - | 758 W/m² | - |
| 1777671633 | 19.44° C | 56% | 1015.2 hPa | 0 mm | - | 740 W/m² | - |
| 1777671334 | 19.44° C | 56% | 1015.3 hPa | 0 mm | - | 738 W/m² | - |
| 1777671050 | 20° C | 55% | 1015.4 hPa | 0 mm | - | 710 W/m² | - |
| 1777670734 | 20° C | 55% | 1015.3 hPa | 0 mm | - | 729 W/m² | - |
| 1777670433 | 19.44° C | 56% | 1015.4 hPa | 0 mm | - | 722 W/m² | - |
| 1777670148 | 19.44° C | 57% | 1015.4 hPa | 0 mm | - | 853 W/m² | - |
| 1777669833 | 19.44° C | 57% | 1015.4 hPa | 0 mm | - | 884 W/m² | - |
| 1777669534 | 18.89° C | 58% | 1015.3 hPa | 0 mm | - | 742 W/m² | - |
| 1777669250 | 18.89° C | 58% | 1015.4 hPa | 0 mm | - | 629 W/m² | - |
| 1777668935 | 18.89° C | 59% | 1015.4 hPa | 0 mm | - | 882 W/m² | - |
| 1777668635 | 18.33° C | 60% | 1015.4 hPa | 0 mm | - | 916 W/m² | - |
| 1777668341 | 18.33° C | 60% | 1015.5 hPa | 0 mm | - | 956 W/m² | - |
| 1777668032 | 18.33° C | 59% | 1015.5 hPa | 0 mm | - | 490 W/m² | - |
| 1777667735 | 18.33° C | 59% | 1015.5 hPa | 0 mm | - | 376 W/m² | - |
| 1777667440 | 18.33° C | 58% | 1015.4 hPa | 0 mm | - | 330 W/m² | - |
| 1777667134 | 18.33° C | 59% | 1015.5 hPa | 0 mm | - | 761 W/m² | - |
| 1777666834 | 18.33° C | 59% | 1015.5 hPa | 0 mm | - | 751 W/m² | - |
| 1777666551 | 18.33° C | 59% | 1015.5 hPa | 0 mm | - | 860 W/m² | - |
| 1777666234 | 18.33° C | 63% | 1015.5 hPa | 0 mm | - | 856 W/m² | - |
| 1777665935 | 17.78° C | 62% | 1015.5 hPa | 0 mm | - | 830 W/m² | - |
| 1777665645 | 17.78° C | 62% | 1015.6 hPa | 0 mm | - | 786 W/m² | - |
| 1777665334 | 17.78° C | 63% | 1015.6 hPa | 0 mm | - | 809 W/m² | - |
| 1777665036 | 17.78° C | 62% | 1015.7 hPa | 0 mm | - | 636 W/m² | - |
* Rain latest hour (hover to see other rain measurements)
** Current wind speed in m/s (hover to see current wind gust speed)